Location: Consuma
(43.7833°N, 11.5833°E)
Time: 17:41:52
(UTC+00:00)

CZ-4B R/B - Pass Details

Date: 17 February 2020
Orbit: 808 x 882 km, 99.1° (Epoch: 28 March)

Event Time Altitude Azimuth Distance (km) Brightness Sun altitude
Rises 05:07:16 0° 14° (NNE) 3,366 6.4 -12.0°
Reaches altitude 10° 05:09:38 10° 15° (NNE) 2,421 5.7 -11.6°
Maximum altitude 05:15:00 89° 107° (ESE) 818 3.2 -10.7°
Drops below altitude 10° 05:20:16 10° 196° (SSW) 2,385 5.5 -9.7°
Sets 05:22:35 0° 196° (SSW) 3,312 6.2 -9.3°
